Weather History for KMKC - May, 2014

Change the Weather History Date:

Monday, May 12, 2014

  Actual Average Record
Temperature  
Mean Temperature 65 °F -  
Max Temperature 78 °F 73 °F 87 °F (2007)
Min Temperature 51 °F 54 °F 41 °F (2013)
Growing Degree Days 15 (Base 50)    
Moisture  
Dew Point 61 °F    
Average Humidity 79    
Maximum Humidity 90    
Minimum Humidity 62    
Precipitation  
Precipitation 0.46 in - - ()
Sea Level Pressure  
Sea Level Pressure 29.79 in    
Wind  
Wind Speed 10 mph (WSW)    
Max Wind Speed 17 mph    
Max Gust Speed 31 mph    
Visibility 8 miles    
Events Rain , Thunderstorm    
Averages and records for this station are not official NWS values.
T = Trace of Precipitation, MM = Missing Value Source: NWS Daily Summary

Daily Weather History Graph

Daily Weather History Graph

Search for Another Location

Airport or City:

Trip Planner

Search our weather history database for the weather conditions in past years. The results will help you decide how hot, cold, wet, or windy it might be!

Date:

Astronomy

May. 12, 2014 Rise Set
Actual Time 6:08 AM CDT 8:21 PM CDT
Civil Twilight 5:38 AM CDT 8:51 PM CDT
Nautical Twilight 5:01 AM CDT 9:28 PM CDT
Astronomical Twilight 4:21 AM CDT 10:09 PM CDT
Moon 6:21 PM CDT (5/12) 4:46 AM CDT (5/12)
Length of Visible Light 15h 13m
Length of Day
14h 13m
Waxing Gibbous, 95% of the Moon is Illuminated
May 12
Waxing Gibbous
May 14
Full
May 21
Last Quarter
May 28
New
Jun 5
First Quarter

Hourly Weather History & Observations

Time (CDT) Temp. Dew Point Humidity Pressure Visibility Wind Dir Wind Speed Gust Speed Precip Events Conditions
12:54 AM 78.1 °F 64.0 °F 62% 29.68 in 10.0 mi South 9.2 mph - N/A   Scattered Clouds
1:54 AM 77.0 °F 64.9 °F 66% 29.69 in 10.0 mi South 6.9 mph - N/A   Overcast
2:54 AM 77.0 °F 64.9 °F 66% 29.67 in 10.0 mi ESE 6.9 mph - N/A   Overcast
3:34 AM 77.0 °F 64.9 °F 66% 29.71 in 10.0 mi South 12.7 mph 20.7 mph N/A Thunderstorm Overcast
3:54 AM 77.0 °F 64.9 °F 66% 29.67 in 10.0 mi SSE 11.5 mph 21.9 mph N/A Thunderstorm Overcast
4:24 AM 75.0 °F 66.9 °F 76% 29.72 in 4.0 mi SSW 15.0 mph 25.3 mph 0.06 in Rain , Thunderstorm Heavy Thunderstorms and Rain
4:33 AM 72.0 °F 66.0 °F 81% 29.72 in 2.5 mi South 15.0 mph 31.1 mph 0.16 in Rain , Thunderstorm Heavy Thunderstorms and Rain
4:41 AM 70.0 °F 64.0 °F 81% 29.72 in 6.0 mi SW 11.5 mph - 0.18 in Rain , Thunderstorm Light Thunderstorms and Rain
4:54 AM 69.1 °F 64.0 °F 84% 29.70 in 5.0 mi SSW 6.9 mph - 0.21 in Rain , Thunderstorm Light Thunderstorms and Rain
5:21 AM 68.0 °F 64.9 °F 90% 29.73 in 2.5 mi South 8.1 mph - 0.12 in Rain , Thunderstorm Rain
5:31 AM 68.0 °F 64.0 °F 87% 29.72 in 5.0 mi SSE 8.1 mph - 0.13 in Rain Light Rain
5:54 AM 68.0 °F 64.0 °F 87% 29.68 in 10.0 mi ESE 4.6 mph - 0.13 in   Overcast
6:54 AM 70.0 °F 64.9 °F 84% 29.69 in 10.0 mi Calm Calm - N/A   Overcast
7:54 AM 73.0 °F 68.0 °F 84% 29.69 in 10.0 mi South 8.1 mph - N/A   Mostly Cloudy
8:36 AM 73.9 °F 68.0 °F 82% 29.75 in 10.0 mi South 11.5 mph - N/A   Overcast
8:54 AM 75.2 °F 68.0 °F 78% 29.75 in 10.0 mi South 10.4 mph - N/A   Overcast
9:54 AM 78.1 °F 68.0 °F 71% 29.73 in 10.0 mi SSW 11.5 mph 20.7 mph N/A   Mostly Cloudy
10:24 AM 77.0 °F 66.9 °F 71% 29.75 in 10.0 mi South 12.7 mph 23.0 mph N/A   Overcast
10:45 AM 77.0 °F 68.0 °F 74% 29.75 in 10.0 mi South 13.8 mph - N/A   Overcast
10:51 AM 77.0 °F 66.2 °F 69% 29.76 in 10.0 mi SSW 13.8 mph 21.9 mph N/A Thunderstorm Overcast
10:54 AM 75.9 °F 66.9 °F 74% 29.74 in 10.0 mi WSW 16.1 mph 21.9 mph N/A Thunderstorm Mostly Cloudy
11:02 AM 72.0 °F 66.0 °F 81% 29.76 in 2.5 mi SW 9.2 mph - 0.04 in Rain , Thunderstorm Light Rain
11:09 AM 72.0 °F 66.9 °F 84% 29.76 in 2.5 mi WSW 11.5 mph - 0.04 in Rain Light Rain
11:16 AM 72.0 °F 66.0 °F 81% 29.77 in 10.0 mi WSW 11.5 mph - 0.04 in   Overcast
11:54 AM 73.0 °F 66.9 °F 81% 29.75 in 10.0 mi WSW 6.9 mph - 0.04 in   Overcast
12:54 PM 73.0 °F 66.0 °F 79% 29.75 in 10.0 mi SW 10.4 mph - N/A   Overcast
1:19 PM 73.9 °F 64.9 °F 73% 29.78 in 10.0 mi SW 16.1 mph - N/A   Overcast
1:54 PM 71.1 °F 62.1 °F 73% 29.77 in 10.0 mi WSW 13.8 mph 24.2 mph N/A   Overcast
2:28 PM 69.1 °F 63.0 °F 81% 29.81 in 10.0 mi SW 11.5 mph - 0.00 in Thunderstorm Overcast
2:35 PM 68.0 °F 63.0 °F 84% 29.79 in 7.0 mi WSW 12.7 mph - 0.00 in Thunderstorm Overcast
2:46 PM 64.0 °F 60.1 °F 87% 29.81 in 7.0 mi West 17.3 mph 24.2 mph 0.00 in Rain Light Rain
2:54 PM 63.0 °F 57.9 °F 84% 29.81 in 10.0 mi West 13.8 mph 24.2 mph 0.00 in   Overcast
3:03 PM 62.1 °F 57.9 °F 86% 29.83 in 9.0 mi WNW 12.7 mph 20.7 mph N/A   Overcast
3:10 PM 61.0 °F 55.9 °F 83% 29.83 in 7.0 mi WNW 8.1 mph 20.7 mph 0.01 in Rain Light Rain
3:36 PM 60.1 °F 55.9 °F 86% 29.85 in 7.0 mi West 11.5 mph - 0.02 in Rain , Thunderstorm Light Rain
3:54 PM 60.1 °F 55.9 °F 86% 29.85 in 5.0 mi West 9.2 mph 19.6 mph 0.04 in Rain , Thunderstorm Light Rain
4:07 PM 59.0 °F 55.9 °F 90% 29.85 in 5.0 mi West 8.1 mph - 0.02 in Rain , Thunderstorm Light Rain
4:26 PM 59.0 °F 55.0 °F 87% 29.83 in 7.0 mi WNW 6.9 mph - 0.04 in Rain , Thunderstorm Light Thunderstorms and Rain
4:41 PM 59.0 °F 55.0 °F 87% 29.85 in 10.0 mi WNW 9.2 mph - 0.04 in   Mostly Cloudy
4:54 PM 57.9 °F 55.0 °F 90% 29.85 in 10.0 mi NW 11.5 mph 19.6 mph 0.04 in   Overcast
5:54 PM 57.9 °F 52.0 °F 81% 29.87 in 10.0 mi WNW 9.2 mph - N/A   Overcast
6:01 PM 57.0 °F 52.0 °F 83% 29.87 in 10.0 mi WNW 10.4 mph - N/A   Overcast
6:54 PM 57.0 °F 51.1 °F 81% 29.88 in 10.0 mi WNW 11.5 mph 18.4 mph N/A   Overcast
7:54 PM 55.9 °F 48.0 °F 75% 29.91 in 10.0 mi NNW 11.5 mph 18.4 mph N/A   Overcast
8:54 PM 55.0 °F 46.9 °F 74% 29.95 in 10.0 mi NW 12.7 mph 21.9 mph N/A   Overcast
9:54 PM 53.1 °F 45.0 °F 74% 29.99 in 10.0 mi WNW 9.2 mph - N/A   Overcast
10:54 PM 52.0 °F 44.1 °F 74% 29.99 in 10.0 mi NNW 12.7 mph 21.9 mph N/A   Overcast
11:54 PM 51.1 °F 45.0 °F 80% 30.03 in 10.0 mi NNW 6.9 mph - N/A   Overcast